Theta_e
354 353 355 355 354 351 354 350 350 350 352 358 357 357 357 356 359 356 353 354 354 352 351 350 347 344 337 336 337 335 331 330 324 327 331 334 333 337 336 334 338 337 332
356 356 355 357 358 354 351 353 350 349 353 353 360 359 358 358 357 357 354 356 352 352 351 348 348 349 341 339 342 334 334 334 328 324 334 336 333 334 334 336 338 340 338
356 357 357 357 358 357 355 352 354 352 351 356 356 358 358 357 357 357 358 357 352 353 353 351 349 348 343 342 340 340 336 335 336 328 332 335 337 337 337 339 339 338 340
355 357 357 358 358 359 360 357 354 356 354 358 356 357 358 357 356 358 357 357 356 353 355 354 352 350 347 344 340 339 337 335 334 333 329 330 335 338 336 334 334 338 337
354 356 357 359 360 360 360 361 360 356 358 355 359 357 359 359 358 356 357 357 357 356 354 356 355 352 348 345 345 341 338 336 335 332 330 330 328 334 336 335 334 335 337
346 354 357 359 360 360 361 361 361 361 357 359 355 358 359 360 346 342 353 356 357 356 356 355 356 350 347 339 340 341 342 336 332 336 332 331 332 332 336 336 336 332 330
348 349 355 358 358 359 361 361 360 361 362 358 359 358 358 360 339 337 342 357 356 357 357 357 356 357 348 351 338 337 337 337 336 334 335 333 332 335 336 335 334 332 330
347 350 351 355 357 358 359 360 360 361 360 361 360 360 360 360 338 333 337 356 356 355 358 358 357 356 355 352 350 344 344 342 341 339 336 337 336 337 337 339 336 335 336
349 351 353 356 356 358 357 359 360 360 360 360 362 360 360 361 333 331 333 351 355 355 356 357 358 358 346 333 351 347 344 344 337 331 334 332 332 336 341 339 334 332 328
350 353 356 357 358 357 358 359 361 361 360 361 360 362 353 361 337 327 332 356 353 353 355 355 338 347 333 327 348 350 345 344 343 341 334 333 332 337 335 340 338 331 328
351 352 355 358 358 359 359 360 361 361 361 360 360 360 362 359 358 325 323 356 358 356 354 352 353 328 325 321 325 353 349 349 343 342 339 337 338 339 340 340 339 335 332
353 352 353 354 356 360 359 360 361 361 360 360 359 359 362 363 337 328 321 325 344 358 357 357 352 325 316 317 322 330 329 329 349 345 340 336 336 336 336 338 339 340 340
354 353 354 356 357 353 359 359 359 360 359 358 358 357 358 361 361 327 320 321 324 346 360 351 330 318 319 315 316 319 319 337 347 346 342 339 337 337 336 337 336 338 335
349 354 356 356 356 354 359 360 360 360 359 358 358 357 357 357 358 359 339 330 323 328 335 344 334 328 323 330 328 320 329 336 342 345 344 339 337 335 334 335 333 334 327
349 357 358 357 355 352 319 318 349 329 336 360 358 356 355 353 352 330 337 340 341 334 337 345 347 339 339 336 333 331 329 334 338 342 341 336 333 332 331 334 334 330 324
352 355 355 354 356 345 327 320 303 302 300 299 305 337 320 312 306 304 304 305 308 310 334 341 343 343 339 336 334 332 334 335 339 341 340 337 330 330 329 331 329 327 323
356 353 353 348 355 346 337 331 323 313 302 300 299 303 312 306 302 300 301 304 311 320 335 332 332 330 329 330 330 330 331 333 333 334 331 331 329 329 326 326 326 324 320
355 337 349 349 351 351 343 338 331 326 327 320 306 303 303 305 302 301 302 314 326 326 328 328 327 328 326 326 325 327 329 332 332 333 330 329 327 327 325 323 322 320 318
349 351 350 352 352 352 349 344 338 336 325 320 318 311 305 299 301 301 303 327 324 324 324 324 324 323 323 323 323 323 324 330 330 330 329 328 327 325 323 322 320 314 314
344 332 337 344 345 347 348 346 343 332 327 323 324 320 322 317 324 325 325 325 325 324 326 325 326 327 325 326 323 323 323 325 329 328 327 327 325 322 321 321 320 315 313
343 342 334 340 339 340 339 337 335 334 329 326 322 316 312 326 325 325 325 325 324 325 325 327 330 330 326 325 324 325 325 327 325 323 325 323 323 321 321 321 319 316 314
338 339 339 338 336 335 335 334 334 331 328 327 322 318 305 327 327 325 325 326 328 329 329 329 329 327 327 326 325 325 327 326 323 322 322 322 322 322 320 318 315 312 311
335 333 334 331 331 327 329 328 328 327 326 324 322 321 324 327 326 327 329 328 328 332 332 331 329 328 328 329 328 327 327 327 325 325 323 322 321 320 318 318 318 314 310
328 327 326 325 325 325 325 324 324 318 323 323 323 324 324 324 324 327 328 329 329 331 330 330 330 329 327 327 327 327 327 327 326 327 327 321 321 318 319 313 312 310 310
323 322 322 322 322 321 322 322 319 319 318 318 317 318 318 318 317 318 318 320 316 313 321 324 327 328 328 327 327 327 314 307 322 316 327 326 321 318 318 313 309 307 305
319 318 317 316 314 314 314 313 313 313 312 312 311 309 308 308 308 307 308 309 307 304 302 302 301 298 298 301 302 297 289 295 301 302 320 319 318 317 316 313 310 306 305
Wind_Speed
18 18 17 16 15 15 7 11 11 6 8 6 10 10 11 12 10 9 6 6 7 7 6 7 8 6 4 4 3 3 4 4 4 3 3 4 3 6 6 6 7 8 9
20 17 17 15 14 14 15 9 12 13 7 9 8 11 12 11 10 11 11 9 8 8 8 9 8 6 7 6 4 6 5 5 5 6 4 4 5 6 9 7 7 6 6
19 18 17 16 16 15 16 16 11 13 14 10 9 12 13 14 12 12 11 11 8 9 11 11 11 10 10 8 6 6 4 4 4 4 5 3 4 4 4 4 5 5 4
20 20 18 18 17 17 16 16 15 13 14 13 13 11 14 15 15 14 13 12 13 12 11 14 15 15 15 13 9 11 7 5 5 5 5 5 4 4 5 6 5 4 6
20 20 20 18 18 17 17 16 16 16 13 15 14 13 12 13 12 16 15 15 16 15 14 13 16 18 19 15 10 12 11 9 6 8 5 4 4 3 11 5 7 7 7
20 21 20 18 18 18 17 17 16 16 17 13 16 16 16 12 17 20 18 16 17 16 15 16 14 16 17 18 20 18 17 14 14 9 11 10 13 8 6 10 10 6 5
20 20 19 19 19 19 18 17 18 17 15 18 17 17 18 18 19 21 22 16 16 17 18 17 15 13 16 16 20 20 22 20 21 15 15 14 13 13 9 12 12 9 5
18 18 19 17 19 18 18 19 18 16 17 17 17 18 17 17 17 19 20 20 17 18 18 19 18 17 17 17 16 17 19 17 19 14 16 15 12 11 10 8 11 6 2
18 15 18 18 19 18 20 19 18 16 16 17 16 17 19 19 15 17 15 15 19 21 16 16 18 18 16 15 15 16 18 19 15 20 21 17 13 11 8 6 3 5 3
15 13 13 16 17 19 19 19 16 17 16 13 15 16 18 18 15 18 17 12 17 14 15 18 16 16 11 16 16 15 17 16 16 14 12 12 14 14 20 13 9 7 2
9 11 12 14 17 17 17 15 15 15 14 15 15 14 16 16 15 17 20 15 15 13 13 12 11 15 18 17 20 18 18 14 16 14 12 11 8 7 8 6 8 3 8
8 7 8 9 10 9 13 13 13 13 14 13 13 12 11 12 13 14 19 22 15 14 15 11 10 9 12 17 16 20 19 14 12 9 11 10 11 11 8 9 13 14 11
2 7 9 9 9 9 11 11 11 12 11 11 10 10 10 8 7 16 19 21 22 14 11 12 12 11 10 8 13 13 9 8 11 12 10 11 11 11 11 11 8 10 9
4 5 6 10 8 8 6 8 9 10 10 10 10 10 8 6 8 7 7 8 12 9 9 8 6 4 4 4 4 6 6 7 11 13 11 8 8 11 12 12 9 10 7
5 6 7 7 10 7 7 3 5 3 4 9 9 6 8 8 6 4 9 7 7 9 7 5 5 4 4 4 3 2 3 3 7 9 10 9 10 13 13 9 9 10 9
7 5 5 5 6 8 8 6 14 10 7 9 4 6 2 4 9 8 9 5 3 10 4 4 5 5 4 2 2 3 4 7 7 8 8 6 2 2 2 6 8 9 11
9 6 4 5 6 9 8 8 8 4 8 14 13 10 7 10 10 10 10 11 7 6 3 2 3 3 2 3 3 3 4 3 1 2 5 6 4 3 10 9 6 6 6
8 9 4 5 5 8 9 8 8 9 6 3 9 7 8 7 7 8 10 7 4 5 3 3 3 4 3 3 3 4 2 2 3 4 3 4 5 7 8 8 8 8 6
5 3 4 7 6 9 10 9 8 7 7 7 4 6 4 6 7 6 3 5 5 4 3 4 4 4 3 4 3 2 1 2 2 3 4 4 6 7 8 8 8 8 7
3 6 4 3 6 7 7 7 9 9 8 7 6 5 3 3 3 3 3 3 4 4 4 4 4 4 4 4 4 4 3 2 3 4 6 6 4 5 6 7 7 5 4
2 1 1 3 5 5 5 6 8 8 8 7 5 3 4 3 4 4 3 3 3 2 2 3 4 4 3 3 3 3 4 3 3 3 5 5 6 6 5 7 7 6 5
4 4 3 6 5 6 7 6 7 9 8 7 4 3 3 4 5 4 3 2 3 3 3 3 3 3 4 3 3 3 4 4 4 4 5 5 5 5 5 5 5 4 6
2 6 8 7 7 8 7 6 6 7 8 6 5 4 3 4 4 4 3 1 2 4 4 4 3 1 2 4 4 3 4 5 5 5 5 5 4 4 5 4 5 6 6
12 13 14 11 12 12 12 12 13 16 14 11 9 11 10 10 9 7 5 2 2 1 2 2 4 4 3 2 3 2 3 4 4 5 6 5 5 6 3 3 6 7 8
12 12 13 12 13 13 12 13 12 11 11 10 10 10 10 9 10 11 11 9 9 12 11 8 4 3 6 6 5 6 4 7 7 7 5 6 6 7 7 6 6 5 5
12 13 12 13 13 13 12 12 12 12 11 10 10 10 10 10 10 10 10 11 12 12 12 11 15 17 17 14 14 9 2 6 6 6 5 5 5 4 4 5 8 5 6
Wind_Direction
187 196 199 202 203 206 197 204 210 205 212 185 174 182 192 189 185 190 195 190 186 186 182 185 215 212 234 241 243 193 194 159 172 293 216 200 150 170 174 191 193 196 206
192 191 201 200 199 200 210 202 205 215 205 196 184 185 185 189 188 193 200 205 196 191 189 193 205 205 221 221 213 239 192 198 168 200 212 187 176 198 182 184 197 200 204
186 193 194 200 199 199 205 211 202 210 216 213 188 194 193 193 194 201 196 201 199 201 196 196 204 194 210 219 205 223 223 210 183 171 207 203 207 176 177 195 198 223 202
188 193 196 197 199 205 203 205 209 207 210 214 214 200 195 197 199 201 202 205 210 216 199 203 210 202 204 205 206 217 214 213 204 188 192 198 175 209 184 192 218 208 222
188 194 198 197 198 202 208 205 206 213 209 212 215 214 202 201 201 203 204 208 213 219 220 214 217 217 214 203 202 216 213 213 212 218 214 196 190 178 203 193 209 214 224
193 194 197 196 196 201 204 206 206 209 212 208 213 215 215 214 206 199 201 210 215 217 222 224 222 217 218 200 206 209 209 214 225 220 226 222 221 210 190 201 204 195 232
194 199 196 195 197 200 202 203 209 212 207 215 214 214 218 221 210 203 201 214 216 218 220 223 225 227 211 214 215 211 212 207 216 215 229 221 222 212 198 207 204 204 201
195 196 198 195 197 198 201 204 207 209 211 214 216 218 220 226 210 206 204 217 224 226 224 224 224 224 221 211 214 219 226 224 225 220 224 224 228 217 206 200 197 181 69
196 189 195 192 195 195 202 205 206 210 213 217 218 219 223 229 202 201 194 221 233 233 230 232 230 230 226 198 210 217 227 232 226 221 226 221 200 195 160 112 148 149 228
192 186 178 187 193 199 200 203 204 209 214 214 221 222 227 233 209 197 197 221 236 238 236 238 232 239 215 195 215 220 228 227 225 227 230 239 209 195 174 181 161 148 223
200 181 182 183 191 197 199 200 202 206 211 217 222 224 227 227 229 198 196 217 230 239 240 244 239 208 214 210 210 226 232 229 230 228 228 231 230 225 206 187 154 181 227
180 190 198 189 188 180 189 195 198 202 209 214 219 226 230 232 221 206 198 212 219 232 237 242 240 194 219 231 218 227 226 215 235 229 227 216 201 191 189 190 182 198 213
179 206 195 185 188 186 178 187 194 198 205 212 216 224 231 229 224 213 199 208 220 234 242 240 197 196 203 218 225 237 228 240 240 236 231 221 215 204 191 198 220 207 174
257 259 207 188 177 180 169 181 191 197 204 212 214 223 224 213 226 225 206 213 230 223 255 248 211 177 149 158 187 206 217 220 227 235 233 220 201 195 200 198 204 186 167
233 239 203 185 182 141 73 1 226 46 240 209 214 196 208 223 219 210 178 183 204 210 217 238 236 203 218 213 214 225 234 227 241 245 243 217 210 199 198 188 204 154 165
286 256 213 172 172 133 131 107 48 57 27 49 53 178 97 80 126 121 113 123 215 190 173 203 219 215 220 224 219 234 226 231 237 235 226 225 205 207 320 153 160 166 146
282 246 217 193 172 144 149 139 125 40 58 52 42 77 108 139 128 123 120 109 91 98 109 111 121 122 180 218 221 232 262 251 230 163 128 158 174 151 143 135 143 138 139
268 245 237 205 181 155 160 163 152 152 148 87 33 55 90 137 131 128 122 82 71 54 92 127 144 162 178 197 231 234 234 256 175 172 155 118 127 135 126 130 152 157 149
298 293 267 213 190 175 163 158 155 146 121 123 118 67 77 110 131 158 213 110 115 120 137 147 161 167 177 200 223 245 200 185 130 110 113 148 155 155 147 152 157 148 149
41 335 8 79 123 132 137 132 127 133 140 145 133 140 183 190 129 102 90 102 115 136 150 168 199 198 181 203 205 193 195 201 179 152 154 150 148 146 148 160 171 167 168
196 257 86 32 80 86 104 117 116 103 107 109 118 115 165 175 155 145 141 143 152 184 176 176 178 135 145 174 202 155 149 165 165 173 149 144 153 157 176 168 173 162 159
187 189 155 110 94 79 88 90 95 97 105 107 115 126 111 94 115 122 118 127 136 132 133 155 139 147 178 201 187 168 143 156 170 151 141 149 166 176 184 188 165 158 150
155 106 92 80 71 76 69 66 84 93 98 93 87 108 120 110 122 121 126 107 150 168 162 155 149 166 185 168 196 192 176 178 178 172 176 173 176 190 190 175 160 160 161
94 95 89 82 79 74 73 73 70 65 72 67 62 59 61 54 47 19 25 311 206 182 135 141 162 181 219 188 182 207 215 207 191 188 181 193 201 196 179 154 162 161 169
94 88 88 87 82 80 79 77 69 67 67 60 53 48 48 43 44 38 30 26 40 27 11 357 357 186 194 201 184 212 245 245 207 193 189 218 215 198 178 161 157 151 141
78 84 87 81 79 80 79 76 69 69 65 59 59 55 50 48 46 41 36 37 41 36 29 26 23 28 31 25 17 17 92 148 114 129 159 146 143 156 166 157 163 153 153